Year,Month,Day,Hour,Minute,Value (Times are PST for temperature in C)
2009,05,19,08,21,8.10
2009,05,19,08,22,8.10
2009,05,19,08,23,8.10
2009,05,19,08,24,8.10
2009,05,19,08,25,8.10
2009,05,19,08,26,8.20
2009,05,19,08,27,8.20
2009,05,19,08,28,8.20
2009,05,19,08,29,8.20
2009,05,19,08,30,8.20
2009,05,19,08,31,8.20
2009,05,19,08,32,8.20
2009,05,19,08,33,8.20
2009,05,19,08,34,8.30
2009,05,19,08,35,8.30
2009,05,19,08,36,8.30
2009,05,19,08,37,8.30
2009,05,19,08,38,8.40
2009,05,19,08,39,8.40
2009,05,19,08,40,8.40
2009,05,19,08,41,8.50
2009,05,19,08,42,8.50
2009,05,19,08,43,8.60
2009,05,19,08,44,8.60
2009,05,19,08,45,8.60
2009,05,19,08,46,8.60
2009,05,19,08,47,8.60
2009,05,19,08,48,8.60
2009,05,19,08,49,8.60
2009,05,19,08,50,8.60
2009,05,19,08,51,8.60
2009,05,19,08,52,8.60
2009,05,19,08,53,8.60
2009,05,19,08,54,8.60
2009,05,19,08,55,8.60
2009,05,19,08,56,8.60
2009,05,19,08,57,8.60
2009,05,19,08,58,8.60
2009,05,19,08,59,8.60
2009,05,19,09,00,8.70
2009,05,19,09,01,8.70
2009,05,19,09,02,8.70
2009,05,19,09,03,8.70
2009,05,19,09,04,8.80
2009,05,19,09,05,8.80
2009,05,19,09,06,8.80
2009,05,19,09,07,8.90
2009,05,19,09,08,8.90
2009,05,19,09,09,8.90
2009,05,19,09,10,8.90
2009,05,19,09,11,8.90
2009,05,19,09,12,8.90
2009,05,19,09,13,8.80
2009,05,19,09,14,8.80
2009,05,19,09,15,8.70
2009,05,19,09,16,8.70
2009,05,19,09,17,8.70
2009,05,19,09,18,8.60
2009,05,19,09,19,8.60
2009,05,19,09,20,8.70
2009,05,19,09,21,8.70
2009,05,19,09,22,8.70
2009,05,19,09,23,8.70
2009,05,19,09,24,8.70
2009,05,19,09,25,8.70
2009,05,19,09,26,8.70
2009,05,19,09,27,8.80
2009,05,19,09,28,8.80
2009,05,19,09,29,8.80
2009,05,19,09,30,8.80
2009,05,19,09,31,8.80
2009,05,19,09,32,8.80
2009,05,19,09,33,8.80
2009,05,19,09,34,8.90
2009,05,19,09,35,8.90
2009,05,19,09,36,8.90
2009,05,19,09,37,8.90
2009,05,19,09,38,9.00
2009,05,19,09,39,9.00
2009,05,19,09,40,9.10
2009,05,19,09,41,9.10
2009,05,19,09,42,9.10
2009,05,19,09,43,9.20
2009,05,19,09,44,9.20
2009,05,19,09,45,9.20
2009,05,19,09,46,9.30
2009,05,19,09,47,9.20
2009,05,19,09,48,9.20
2009,05,19,09,49,9.20
2009,05,19,09,50,9.20
2009,05,19,09,51,9.10
2009,05,19,09,52,9.10
2009,05,19,09,53,9.20
2009,05,19,09,54,9.20
2009,05,19,09,55,9.20
2009,05,19,09,56,9.20
2009,05,19,09,57,9.20
2009,05,19,09,58,9.20
2009,05,19,09,59,9.30
2009,05,19,10,00,9.30
2009,05,19,10,01,9.30
2009,05,19,10,02,9.40
2009,05,19,10,03,9.40
2009,05,19,10,04,9.40
2009,05,19,10,05,9.40
2009,05,19,10,06,9.40
2009,05,19,10,07,9.40
2009,05,19,10,08,9.40
2009,05,19,10,09,9.40
2009,05,19,10,10,9.50
2009,05,19,10,11,9.60
2009,05,19,10,12,9.60
2009,05,19,10,13,9.60
2009,05,19,10,14,9.60
2009,05,19,10,15,9.60
2009,05,19,10,16,9.50
2009,05,19,10,17,9.50
2009,05,19,10,18,9.50
2009,05,19,10,19,9.50
2009,05,19,10,20,9.60
2009,05,19,10,21,9.60
2009,05,19,10,22,9.80
2009,05,19,10,23,9.90
2009,05,19,10,24,10.00
2009,05,19,10,25,10.10
2009,05,19,10,26,10.20
2009,05,19,10,27,10.20
2009,05,19,10,28,10.30
2009,05,19,10,29,10.40
2009,05,19,10,30,10.40
2009,05,19,10,31,10.40
2009,05,19,10,32,10.40
2009,05,19,10,33,10.40
2009,05,19,10,34,10.30
2009,05,19,10,35,10.20
2009,05,19,10,36,10.20
2009,05,19,10,37,10.10
2009,05,19,10,38,10.10
2009,05,19,10,39,10.10
2009,05,19,10,40,10.10
2009,05,19,10,41,10.20
2009,05,19,10,42,10.20
2009,05,19,10,43,10.20
2009,05,19,10,44,10.20
2009,05,19,10,45,10.20
2009,05,19,10,46,10.20
2009,05,19,10,47,10.20
2009,05,19,10,48,10.20
2009,05,19,10,49,10.30
2009,05,19,10,50,10.30
2009,05,19,10,51,10.50
2009,05,19,10,52,10.60
2009,05,19,10,53,10.70
2009,05,19,10,54,10.70
2009,05,19,10,55,10.70
2009,05,19,10,56,10.70
2009,05,19,10,57,10.70
2009,05,19,10,58,10.70
2009,05,19,10,59,10.80
2009,05,19,11,00,10.80
2009,05,19,11,01,10.80
2009,05,19,11,02,10.80
2009,05,19,11,03,10.70
2009,05,19,11,04,10.70
2009,05,19,11,05,10.70
2009,05,19,11,06,10.70
2009,05,19,11,07,10.70
2009,05,19,11,08,10.70
2009,05,19,11,09,10.70
2009,05,19,11,10,10.80
2009,05,19,11,11,10.90
2009,05,19,11,12,10.90
2009,05,19,11,13,10.90
2009,05,19,11,14,10.90
2009,05,19,11,15,10.80
2009,05,19,11,16,10.80
2009,05,19,11,17,10.80
2009,05,19,11,18,10.70
2009,05,19,11,19,10.60
2009,05,19,11,20,10.50
2009,05,19,11,21,10.50
2009,05,19,11,22,10.50
2009,05,19,11,23,10.50
2009,05,19,11,24,10.40
2009,05,19,11,25,10.40
2009,05,19,11,26,10.50
2009,05,19,11,27,10.50
2009,05,19,11,28,10.40
2009,05,19,11,29,10.40
2009,05,19,11,30,10.30
2009,05,19,11,31,10.30
2009,05,19,11,32,10.10
2009,05,19,11,33,10.00
2009,05,19,11,34,9.90
2009,05,19,11,35,9.90
2009,05,19,11,36,9.80
2009,05,19,11,37,9.80
2009,05,19,11,38,9.70
2009,05,19,11,39,9.70
2009,05,19,11,40,9.60
2009,05,19,11,41,9.60
2009,05,19,11,42,9.60
2009,05,19,11,43,9.50
2009,05,19,11,44,9.50
2009,05,19,11,45,9.40
2009,05,19,11,46,9.30
2009,05,19,11,47,9.30
2009,05,19,11,48,9.20
2009,05,19,11,49,9.20
2009,05,19,11,50,9.30
2009,05,19,11,51,9.30
2009,05,19,11,52,9.40
2009,05,19,11,53,9.40
2009,05,19,11,54,9.60
2009,05,19,11,55,9.70
2009,05,19,11,56,9.70
2009,05,19,11,57,9.70
2009,05,19,11,58,9.70
2009,05,19,11,59,9.70
2009,05,19,12,00,9.60
2009,05,19,12,01,9.60
2009,05,19,12,02,9.60
2009,05,19,12,03,9.70
2009,05,19,12,04,9.70
2009,05,19,12,05,9.70
2009,05,19,12,06,9.70
2009,05,19,12,07,9.70
2009,05,19,12,08,9.70
2009,05,19,12,09,9.70
2009,05,19,12,10,9.80
2009,05,19,12,11,9.80
2009,05,19,12,12,9.80
2009,05,19,12,13,9.80
2009,05,19,12,14,9.80
2009,05,19,12,15,9.80
2009,05,19,12,16,9.70
2009,05,19,12,17,9.70
2009,05,19,12,18,9.70
2009,05,19,12,19,9.70
2009,05,19,12,20,9.70
2009,05,19,12,21,9.60
2009,05,19,12,22,9.60
2009,05,19,12,23,9.50
2009,05,19,12,24,9.50
2009,05,19,12,25,9.40
2009,05,19,12,26,9.40
2009,05,19,12,27,9.40
2009,05,19,12,28,9.40
2009,05,19,12,29,9.40
2009,05,19,12,30,9.40
2009,05,19,12,31,9.50
2009,05,19,12,32,9.50
2009,05,19,12,33,9.60
2009,05,19,12,34,9.60
2009,05,19,12,35,9.60
2009,05,19,12,36,9.60
2009,05,19,12,37,9.70
2009,05,19,12,38,9.80
2009,05,19,12,39,9.80
2009,05,19,12,40,9.80
2009,05,19,12,41,9.90
2009,05,19,12,42,10.00
2009,05,19,12,43,10.10
2009,05,19,12,44,10.30
2009,05,19,12,45,10.40
2009,05,19,12,46,10.50
2009,05,19,12,47,10.70
2009,05,19,12,48,10.70
2009,05,19,12,49,10.60
2009,05,19,12,50,10.70
2009,05,19,12,51,10.70
2009,05,19,12,52,10.80
2009,05,19,12,53,10.90
2009,05,19,12,54,11.00
2009,05,19,12,55,11.20
2009,05,19,12,56,11.40
2009,05,19,12,57,11.60
2009,05,19,12,58,11.80
2009,05,19,12,59,11.80
2009,05,19,13,00,11.90
2009,05,19,13,01,11.90
2009,05,19,13,02,12.00
2009,05,19,13,03,11.90
2009,05,19,13,04,11.90
2009,05,19,13,05,11.80
2009,05,19,13,06,11.80
2009,05,19,13,07,11.70
2009,05,19,13,08,11.60
2009,05,19,13,09,11.50
2009,05,19,13,10,11.40
2009,05,19,13,11,11.30
2009,05,19,13,12,11.20
2009,05,19,13,13,11.20
2009,05,19,13,14,11.20
2009,05,19,13,15,11.20
2009,05,19,13,16,11.30
2009,05,19,13,17,11.30
2009,05,19,13,18,11.40
2009,05,19,13,19,11.40
2009,05,19,13,20,11.50
2009,05,19,13,21,11.50
2009,05,19,13,22,11.50
2009,05,19,13,23,11.50
2009,05,19,13,24,11.30
2009,05,19,13,25,11.00
2009,05,19,13,26,10.70
2009,05,19,13,27,10.50
2009,05,19,13,28,10.20
2009,05,19,13,29,10.00
2009,05,19,13,30,9.80
2009,05,19,13,31,9.70
2009,05,19,13,32,9.60
2009,05,19,13,33,9.60
2009,05,19,13,34,9.60
2009,05,19,13,35,9.60
2009,05,19,13,36,9.70
2009,05,19,13,37,9.70
2009,05,19,13,38,9.80
2009,05,19,13,39,9.80
2009,05,19,13,40,9.80
2009,05,19,13,41,9.80
2009,05,19,13,42,9.80
2009,05,19,13,43,9.80
2009,05,19,13,44,9.80
2009,05,19,13,45,9.80
2009,05,19,13,46,9.70
2009,05,19,13,47,9.60
2009,05,19,13,48,9.50
2009,05,19,13,49,9.40
2009,05,19,13,50,9.30
2009,05,19,13,51,9.30
2009,05,19,13,52,9.20
2009,05,19,13,53,9.10
2009,05,19,13,54,9.10
2009,05,19,13,55,9.10
2009,05,19,13,56,9.00
2009,05,19,13,57,9.10
2009,05,19,13,58,9.10
2009,05,19,13,59,9.10
2009,05,19,14,00,9.20
2009,05,19,14,01,9.20
2009,05,19,14,02,9.30
2009,05,19,14,03,9.30
2009,05,19,14,04,9.40
2009,05,19,14,05,9.50
2009,05,19,14,06,9.60
2009,05,19,14,07,9.70
2009,05,19,14,08,9.80
2009,05,19,14,09,9.90
2009,05,19,14,10,9.90
2009,05,19,14,11,10.00
2009,05,19,14,12,10.10
2009,05,19,14,13,10.10
2009,05,19,14,14,10.20
2009,05,19,14,15,10.20
2009,05,19,14,16,10.30
2009,05,19,14,17,10.30
2009,05,19,14,18,10.50
2009,05,19,14,19,10.60
2009,05,19,14,20,10.80
2009,05,19,14,21,10.80
2009,05,19,14,22,11.00
2009,05,19,14,23,11.10
2009,05,19,14,24,11.20
2009,05,19,14,25,11.20
2009,05,19,14,26,11.20
2009,05,19,14,27,11.00
2009,05,19,14,28,11.00
2009,05,19,14,29,10.90
2009,05,19,14,30,10.90
2009,05,19,14,31,11.00
2009,05,19,14,32,10.90
2009,05,19,14,33,11.00
2009,05,19,14,34,11.00
2009,05,19,14,35,10.90
2009,05,19,14,36,10.90
2009,05,19,14,37,10.90
2009,05,19,14,38,10.90
2009,05,19,14,39,10.90
2009,05,19,14,40,10.80
2009,05,19,14,41,10.70
2009,05,19,14,42,10.70
2009,05,19,14,43,10.60
2009,05,19,14,44,10.40
2009,05,19,14,45,10.30
2009,05,19,14,46,10.30
2009,05,19,14,47,10.30
2009,05,19,14,48,10.20
2009,05,19,14,49,10.20
2009,05,19,14,50,10.20
2009,05,19,14,51,10.20
2009,05,19,14,52,10.20
2009,05,19,14,53,10.10
2009,05,19,14,54,10.10
2009,05,19,14,55,10.00
2009,05,19,14,56,9.90
2009,05,19,14,57,9.80
2009,05,19,14,58,9.80
2009,05,19,14,59,9.80
2009,05,19,15,00,9.70
2009,05,19,15,01,9.70
2009,05,19,15,02,9.70
2009,05,19,15,03,9.70
2009,05,19,15,04,9.60
2009,05,19,15,05,9.60
2009,05,19,15,06,9.60
2009,05,19,15,07,9.60
2009,05,19,15,08,9.60
2009,05,19,15,09,9.60
2009,05,19,15,10,9.60
2009,05,19,15,11,9.60
2009,05,19,15,12,9.60
2009,05,19,15,13,9.60
2009,05,19,15,14,9.70
2009,05,19,15,15,9.80
2009,05,19,15,16,9.90
2009,05,19,15,17,10.00
2009,05,19,15,18,10.10
2009,05,19,15,19,10.20
2009,05,19,15,20,10.30
2009,05,19,15,21,10.40
2009,05,19,15,22,10.50
2009,05,19,15,23,10.60
2009,05,19,15,24,10.60
2009,05,19,15,25,10.50
2009,05,19,15,26,10.60
2009,05,19,15,27,10.60
2009,05,19,15,28,10.60
2009,05,19,15,29,10.60
2009,05,19,15,30,10.70
2009,05,19,15,31,10.70
2009,05,19,15,32,10.80
2009,05,19,15,33,10.80
2009,05,19,15,34,10.90
2009,05,19,15,35,10.90
2009,05,19,15,36,11.00
2009,05,19,15,37,11.10
2009,05,19,15,38,11.20
2009,05,19,15,39,11.30
2009,05,19,15,40,11.50
2009,05,19,15,41,11.60
2009,05,19,15,42,11.70
2009,05,19,15,43,11.80
2009,05,19,15,44,11.80
2009,05,19,15,45,11.80
2009,05,19,15,46,11.90
2009,05,19,15,47,11.90
2009,05,19,15,48,11.90
2009,05,19,15,49,11.80
2009,05,19,15,50,11.70
2009,05,19,15,51,11.70
2009,05,19,15,52,11.60
2009,05,19,15,53,11.50
2009,05,19,15,54,11.40
2009,05,19,15,55,11.30
2009,05,19,15,56,11.30
2009,05,19,15,57,11.30
2009,05,19,15,58,11.30
2009,05,19,15,59,11.30
2009,05,19,16,00,11.30
2009,05,19,16,01,11.20
2009,05,19,16,02,11.20
2009,05,19,16,03,11.10
2009,05,19,16,04,11.00
2009,05,19,16,05,10.80
2009,05,19,16,06,10.80
2009,05,19,16,07,10.70
2009,05,19,16,08,10.60
2009,05,19,16,09,10.50
2009,05,19,16,10,10.50
2009,05,19,16,11,10.40
2009,05,19,16,12,10.40
2009,05,19,16,13,10.30
2009,05,19,16,14,10.30
2009,05,19,16,15,10.30
2009,05,19,16,16,10.30
2009,05,19,16,17,10.30
2009,05,19,16,18,10.30
2009,05,19,16,19,10.30
2009,05,19,16,20,10.30
2009,05,19,16,21,10.30
2009,05,19,16,22,10.30
2009,05,19,16,23,10.20
2009,05,19,16,24,10.10
2009,05,19,16,25,10.10
2009,05,19,16,26,10.10
2009,05,19,16,27,10.00
2009,05,19,16,28,10.00
2009,05,19,16,29,10.10
2009,05,19,16,30,10.10
2009,05,19,16,31,10.10
2009,05,19,16,32,10.20
2009,05,19,16,33,10.30
2009,05,19,16,34,10.30
2009,05,19,16,35,10.30
2009,05,19,16,36,10.30
2009,05,19,16,37,10.40
2009,05,19,16,38,10.40
2009,05,19,16,39,10.50
2009,05,19,16,40,10.60
2009,05,19,16,41,10.60
2009,05,19,16,42,10.50
2009,05,19,16,43,10.50
2009,05,19,16,44,10.50
2009,05,19,16,45,10.50
2009,05,19,16,46,10.50
2009,05,19,16,47,10.40
2009,05,19,16,48,10.40
2009,05,19,16,49,10.40
2009,05,19,16,50,10.50
2009,05,19,16,51,10.50
2009,05,19,16,52,10.50
2009,05,19,16,53,10.60
2009,05,19,16,54,10.60
2009,05,19,16,55,10.60
2009,05,19,16,56,10.60
2009,05,19,16,57,10.60
2009,05,19,16,58,10.50
2009,05,19,16,59,10.50
2009,05,19,17,00,10.50
2009,05,19,17,01,10.40
2009,05,19,17,02,10.40
2009,05,19,17,03,10.40
2009,05,19,17,04,10.40
2009,05,19,17,05,10.40
2009,05,19,17,06,10.40
2009,05,19,17,07,10.40
2009,05,19,17,08,10.40
2009,05,19,17,09,10.40
2009,05,19,17,10,10.40
2009,05,19,17,11,10.40
2009,05,19,17,12,10.40
2009,05,19,17,13,10.40
2009,05,19,17,14,10.40
2009,05,19,17,15,10.40
2009,05,19,17,16,10.40
2009,05,19,17,17,10.40
2009,05,19,17,18,10.40
2009,05,19,17,19,10.50
2009,05,19,17,20,10.50
2009,05,19,17,21,10.60
2009,05,19,17,22,10.60
2009,05,19,17,23,10.70
2009,05,19,17,24,10.80
2009,05,19,17,25,10.80
2009,05,19,17,26,10.80
2009,05,19,17,27,10.80
2009,05,19,17,28,10.80
2009,05,19,17,29,10.80
2009,05,19,17,30,10.90
2009,05,19,17,31,10.90
2009,05,19,17,32,10.90
2009,05,19,17,33,10.90
2009,05,19,17,34,10.90
2009,05,19,17,35,10.90
2009,05,19,17,36,10.90
2009,05,19,17,37,10.90
2009,05,19,17,38,10.80
2009,05,19,17,39,10.80
2009,05,19,17,40,10.90
2009,05,19,17,41,10.90
2009,05,19,17,42,10.90
2009,05,19,17,43,10.90
2009,05,19,17,44,10.90
2009,05,19,17,45,10.90
2009,05,19,17,46,10.90
2009,05,19,17,47,10.90
2009,05,19,17,48,10.80
2009,05,19,17,49,10.80
2009,05,19,17,50,10.80
2009,05,19,17,51,10.80
2009,05,19,17,52,10.80
2009,05,19,17,53,10.80
2009,05,19,17,54,10.80
2009,05,19,17,55,10.80
2009,05,19,17,56,10.80
2009,05,19,17,57,10.70
2009,05,19,17,58,10.70
2009,05,19,17,59,10.70
2009,05,19,18,00,10.70
2009,05,19,18,01,10.70
2009,05,19,18,02,10.70
2009,05,19,18,03,10.80
2009,05,19,18,04,10.80
2009,05,19,18,05,10.80
2009,05,19,18,06,10.80
2009,05,19,18,07,10.80
2009,05,19,18,08,10.80
2009,05,19,18,09,10.80
2009,05,19,18,10,10.80
2009,05,19,18,11,10.80
2009,05,19,18,12,10.80
2009,05,19,18,13,10.80
2009,05,19,18,14,10.80
2009,05,19,18,15,10.80
2009,05,19,18,16,10.80
2009,05,19,18,17,10.80
2009,05,19,18,18,10.80
2009,05,19,18,19,10.90
2009,05,19,18,20,10.90
2009,05,19,18,21,10.90
2009,05,19,18,22,10.90
2009,05,19,18,23,10.90
2009,05,19,18,24,10.90
2009,05,19,18,25,10.90
2009,05,19,18,26,10.90
2009,05,19,18,27,10.90
2009,05,19,18,28,10.90
2009,05,19,18,29,10.90
2009,05,19,18,30,10.90
2009,05,19,18,31,10.90
2009,05,19,18,32,10.90
2009,05,19,18,33,10.90
2009,05,19,18,34,10.90
